Location: Doughton_Park
(36.4250°N, 81.1830°W)
Time: 23:47:58
(UTC-05:00)

N. Korean satellite - Visible Passes

Search period start: 19 November 2019 00:00
Search period end: 29 November 2019 00:00
Orbit: 456 x 506 km, 97.2° (Epoch: 18 November)

Date Brightness Start Highest point End Pass type
(mag) Time Alt. Az. Time Alt. Az. Time Alt. Az.
19 Nov 7.9 05:54:56 10° NNE 05:58:28 43° E 06:01:57 10° S visible
19 Nov 8.4 18:00:54 10° SSW 18:04:15 36° W 18:07:40 10° NNW visible
20 Nov 9.5 05:30:13 10° NE 05:32:59 20° E 05:35:42 10° SE visible
21 Nov 6.9 06:37:29 10° N 06:41:01 44° WNW 06:44:28 10° SSW visible
21 Nov 10.5 18:46:47 10° W 18:47:06 10° W 18:47:25 10° W visible
22 Nov 6.7 06:11:59 10° NNE 06:15:41 79° ESE 06:19:17 10° S visible
22 Nov 9.5 18:18:40 10° SSW 18:21:31 22° W 18:24:26 10° NW visible
23 Nov 8.5 05:46:54 10° NNE 05:50:15 33° E 05:53:32 10° SSE visible
23 Nov 7.8 17:52:31 10° S 17:56:02 47° W 17:59:38 10° NNW visible
24 Nov 9.8 05:22:28 10° NE 05:24:44 16° E 05:26:57 10° SE visible
25 Nov 6.6 06:29:14 10° N 06:32:50 57° WNW 06:36:21 10° SSW visible
25 Nov 10.0 18:37:01 10° WSW 18:38:48 13° W 18:40:37 10° WNW visible
26 Nov 7.2 06:03:51 10° NNE 06:07:27 59° E 06:10:59 10° S visible
26 Nov 9.0 18:10:06 10° SSW 18:13:16 27° W 18:16:28 10° NW visible
27 Nov 9.0 05:38:54 10° NE 05:41:59 26° E 05:45:00 10° SSE visible
27 Nov 7.2 17:44:10 10° S 17:47:48 62° W 17:51:30 10° NNW visible
28 Nov 10.1 05:14:55 10° ENE 05:16:25 12° E 05:17:54 10° ESE visible
28 Nov 7.3 06:46:37 10° N 06:49:54 32° WNW 06:53:07 10° SW visible
